Home   Weather   Mykonos   Past weeks
Flag for Greece

Past Weather in Mykonos, Greece — Yesterday and Last 2 Weeks

Now
66 °F

Passing clouds.


Feels Like: 66 °F
Forecast: 71 / 69 °F
Wind: 21 mph from North

Location: Mikonos Airport

Current Time: Oct 21, 2019 at 6:32:31 am

Latest Report: Oct 21, 2019 at 4:50 am


Visibility: 5 mi

Pressure: 30.07 "Hg

Humidity: 83%

Dew Point: 61 °F

Location of MykonosLocation

Past Weather in Mykonos — Graph

°F

Mykonos Temperature Yesterday

Maximum temperature yesterday: 73 °F (at 11:50 am)
Minimum temperature yesterday: 66 °F (at 2:50 am)
Average temperature yesterday: 70 °F

High & Low Weather Summary for the Past Weeks

 TemperatureHumidityPressure
High81 °F (Oct 6, 4:20 pm)94% (Oct 8, 5:50 am)30.18 "Hg (Oct 8, 5:50 am)
Low63 °F (Oct 9, 9:50 pm)47% (Oct 10, 1:50 pm)29.74 "Hg (Oct 7, 3:50 pm)
Average70 °F71%30.04 "Hg
* Reported Oct 6 4:50 am — Oct 21 4:50 am, Mykonos. Weather by CustomWeather, © 2019

Note: Actual official high and low records may vary slightly from our data, if they occured in-between our weather recording intervals... More about our weather records

Advertising

Mykonos Weather History for the Previous 24 Hours

Scroll right to see more
 ConditionsComfort  
Time TempWeatherWind HumidityBarometerVisibility
4:50 am
Mon, Oct 21
66 °FPassing clouds.21 mph83%30.07 "Hg5 mi
3:50 am66 °FPassing clouds.15 mph83%30.09 "Hg5 mi
2:50 am66 °FPassing clouds.15 mph83%30.09 "Hg5 mi
11:50 pm
Sun, Oct 20
68 °FPassing clouds.15 mph83%30.12 "Hg4 mi
10:50 pm66 °FPassing clouds.15 mph83%30.12 "Hg4 mi
10:20 pm66 °FPassing clouds.17 mph83%30.09 "Hg4 mi
9:50 pm66 °FPassing clouds.18 mph83%30.09 "Hg4 mi
9:20 pm66 °FPassing clouds.17 mph83%30.09 "Hg4 mi
8:50 pm68 °FPassing clouds.18 mph83%30.12 "Hg4 mi
8:20 pm68 °FPassing clouds.21 mph83%30.12 "Hg4 mi
7:50 pm68 °FPassing clouds.21 mph83%30.12 "Hg4 mi
7:20 pm70 °FPassing clouds.20 mph78%30.12 "Hg4 mi
6:50 pm70 °FPassing clouds.21 mph73%30.12 "Hg4 mi
6:20 pm72 °FScattered clouds.20 mph69%30.12 "Hg4 mi
5:50 pm72 °FScattered clouds.20 mph65%30.12 "Hg5 mi
5:20 pm73 °FScattered clouds.18 mph61%30.12 "Hg5 mi
4:50 pm73 °FScattered clouds.20 mph61%30.09 "Hg5 mi
4:20 pm73 °FPassing clouds.17 mph61%30.09 "Hg5 mi
3:50 pm73 °FPassing clouds.17 mph65%30.09 "Hg5 mi
3:20 pm73 °FPassing clouds.18 mph65%30.12 "Hg5 mi
2:50 pm73 °FPassing clouds.16 mph65%30.12 "Hg5 mi
2:20 pm73 °FPassing clouds.16 mph61%30.12 "Hg5 mi
1:50 pm73 °FPassing clouds.14 mph61%30.12 "Hg5 mi
1:20 pm73 °FPassing clouds.15 mph65%30.12 "Hg5 mi
12:50 pm73 °FPassing clouds.15 mph65%30.12 "Hg5 mi
12:20 pm73 °FPassing clouds.16 mph65%30.12 "Hg5 mi
11:50 am73 °FPassing clouds.15 mph65%30.12 "Hg5 mi
11:20 am72 °FPassing clouds.14 mph73%30.12 "Hg5 mi
10:50 am72 °FPassing clouds.14 mph69%30.12 "Hg5 mi
10:20 am70 °FPassing clouds.13 mph73%30.12 "Hg5 mi
9:50 am70 °FScattered clouds.13 mph73%30.12 "Hg4 mi
9:20 am68 °FScattered clouds.13 mph78%30.12 "Hg4 mi
8:50 am68 °FScattered clouds.10 mph83%30.09 "Hg4 mi
8:20 am66 °FScattered clouds.9 mph83%30.09 "Hg4 mi
7:50 am66 °FScattered clouds.10 mph88%30.12 "Hg4 mi
7:20 am66 °FPassing clouds.9 mph88%30.09 "Hg5 mi
6:50 am66 °FPassing clouds.14 mph88%30.09 "Hg6 mi
6:20 am66 °FPassing clouds.14 mph88%30.09 "Hg6 mi
Weather by CustomWeather, © 2019

See weather overview